Overview Statistics Trail Chart Weather Telemetry Raw packets
 

This is the latest recevied weather packets stored in our database for station/object KE8WMS. If no packets are shown the sender has not sent any weather packets the latest 10 day(s).

<< 67 68 69 70 71 72 73 >>
Time Temp. Humidity Pressure Rain* Wind** Luminosity Snow
1777375616 14.44° C 92% 1006.2 hPa 0 mm - 29 W/m² -
1777375311 14.44° C 91% 1005.9 hPa 0 mm - 26 W/m² -
1777375009 14.44° C 91% 1006 hPa 0 mm - 21 W/m² -
1777374704 14.44° C 92% 1005.9 hPa 0 mm - 14 W/m² -
1777374400 14.44° C 91% 1006 hPa 0 mm - 10 W/m² -
1777374098 14.44° C 91% 1005.8 hPa 0 mm - 5 W/m² -
1777373793 15° C 91% 1005.6 hPa 0 mm - 4 W/m² -
1777373491 15° C 91% 1005.4 hPa 0 mm - 5 W/m² -
1777373186 15° C 91% 1005.4 hPa 0 mm - 3 W/m² -
1777372882 15° C 91% 1005.1 hPa 0 mm - 3 W/m² -
1777372577 15° C 91% 1004.9 hPa 0 mm - 2 W/m² -
1777372276 15° C 91% 1004.6 hPa 0 mm - 1 W/m² -
1777371975 15° C 92% 1004.7 hPa 0 mm - 1 W/m² -
1777371671 15° C 91% 1004.5 hPa 0 mm - 0 W/m² -
1777371368 15° C 92% 1004.4 hPa 0 mm - 0 W/m² -
1777371065 15° C 92% 1004.2 hPa 0 mm - 0 W/m² -
1777370760 15° C 92% 1004 hPa 0 mm - 0 W/m² -
1777370456 15° C 92% 1004.1 hPa 0 mm - 0 W/m² -
1777370151 15° C 91% 1003.9 hPa 0 mm - 0 W/m² -
1777369850 15° C 91% 1003.8 hPa 0 mm - 0 W/m² -
1777369549 15° C 91% 1003.8 hPa 0 mm - 0 W/m² -
1777369246 15° C 91% 1003.5 hPa 0 mm - 0 W/m² -
1777368945 15° C 91% 1003 hPa 0 mm - 0 W/m² -
1777368640 15° C 92% 1003 hPa 0 mm - 0 W/m² -
1777368340 15° C 92% 1002.8 hPa 0 mm - 0 W/m² -

* Rain latest hour (hover to see other rain measurements)
** Current wind speed in m/s (hover to see current wind gust speed)